Location: Carrières
(48.9495°N, 2.0407°E)
Time: 15:46:53
(UTC+00:00)

Altair - Pass Details

Date: 23 April 2024
Orbit: 1502 x 1682 km, 47.2° (Epoch: 21 May)

Event Time Altitude Azimuth Distance (km) Brightness Sun altitude
Rises 20:16:55 0° 262° (W) 4,913 10.9 -12.4°
Reaches altitude 10° 20:20:06 10° 262° (W) 3,911 10.3 -12.8°
Maximum altitude 20:30:08 82° 177° (S) 1,640 7.6 -14.1°
Drops below altitude 10° 20:39:47 10° 92° (E) 3,776 9.1 -15.3°
Enters shadow 20:40:27 - 92° (E) 3,984 9.2 -15.4°
